Regional Weather Roundup
Issued by NWS

Home | Current Version | Previous Version | Graphics & Text | Print | Product List | Glossary On
Versions: 1 2 3 4 5 6 7 8 9 10 11 12 13 14 15 16 17 18 19 20 21 22 23 24 25 26 27 28 29 30 31 32 33 34 35 36 37 38 39 40 41 42 43 44 45 46 47 48 49 50
000
ASUS43 KDTX 281110
RWRMI
MICHIGAN HOURLY REGIONAL WEATHER ROUNDUP
NATIONAL WEATHER SERVICE DETROIT/PONTIAC MI
700 AM EDT FRI JUL 28 2017

NOTE: "FAIR" INDICATES FEW OR NO CLOUDS BELOW 12,000 FEET WITH NO
SIGNIFICANT WEATHER AND/OR OBSTRUCTION TO VISIBILITY.

MIZ047>049-052>055-059>063-066>070-074>076-081>083-281200-
SOUTHEAST LOWER MICHIGAN

CITY           SKY/WX    TMP DP  RH WIND       PRES   REMARKS
ADRIAN         CLOUDY    62  58  86 NE8       29.94S
ALMA           CLOUDY    62  59  90 N6        30.01S
ANN ARBOR      MOCLDY    62  59  90 N8        29.94R
BAD AXE        CLOUDY    62  60  93 NE5       30.01R
CARO           CLOUDY    61  58  90 N3        29.99R
DETROIT CITY   MOCLDY    64  61  90 N7        29.93S
DETROIT        CLOUDY    64  61  90 N7        29.93S
FLINT          CLOUDY    62  58  86 N8        29.98R
GROSSE ILE     CLOUDY    66  62  86 N8        29.91S
HILLSDALE      CLOUDY    61  57  88 N5        29.94S
HOWELL         MOCLDY    60  58  95 N3        29.97S

CITY           SKY/WX    TMP DP  RH WIND       PRES   REMARKS
JACKSON        MOCLDY    62  58  86 NE6       29.96S
LAMBERTVILLE   CLOUDY    63  59  89 N5        29.91F
LANSING        CLOUDY    61  57  87 N7        29.99R
LAPEER         FAIR      60  59  96 N5        29.98S
MASON          CLOUDY    60  58  95 CALM      29.97S
MONROE         MOCLDY    62  60  94 N3        29.91S
MT. CLEMENS    MOCLDY    63  63 100 N7        29.92S
PONTIAC        CLOUDY    62  60  93 N7        29.95R
PORT HOPE        N/A     68  61  78 NE17      29.99S
PORT HURON     CLOUDY    66  59  77 NE8       29.95R
TRI CITIES     CLOUDY    62  61  96 N10       30.01R
MIDLAND        FAIR      60  59  96 N6        30.01S
TROY           CLOUDY    65  61  86 N5        29.96R
SAGINAW HB     CLOUDY    61  59  94 N5        29.99R
$$
MIZ043>046-050>051-056>058-064>065-071>073-077>080-281200-
SOUTHWEST LOWER MICHIGAN

CITY           SKY/WX    TMP DP  RH WIND       PRES   REMARKS
BATTLE CREEK   CLOUDY    63  59  87 NE8       29.97R
BENTON HARBOR  PTCLDY    65  59  81 E8        29.95R
BIG RAPIDS     CLOUDY    60  57  89 CALM      30.00F
COLDWATER      CLOUDY    63  61  91 NE6       29.95R
FREMONT        CLOUDY    62  60  93 NE3       30.00S
HOLLAND        MOCLDY    65  58  78 NE5       29.98R
GRAND RAPIDS   MOCLDY    63  61  93 NE8       29.98R
IONIA          FAIR      62  60  94 N8        29.99R
KALAMAZOO      CLOUDY    64  57  78 VRB3      29.97R
LUDINGTON      MOCLDY    56  56 100 N6        30.02R
MARSHALL       CLOUDY    62  61  98 CALM      29.96R
MOUNT PLEASANT CLOUDY    63  59  87 N5        30.01S
MUSKEGON       CLOUDY    65  60  84 N8        30.00R
SOUTH HAVEN    CLEAR     64  61  91 E3        29.96R
$$
MIZ016>042-281200-
NORTHERN LOWER MICHIGAN

CITY           SKY/WX    TMP DP  RH WIND       PRES   REMARKS
ALPENA         PTCLDY    62  59  90 E7        30.06R
BEAVER ISLAND  CLOUDY    64  58  81 E7        30.06S
BELLAIRE       PTCLDY    53  52  95 CALM      30.04S
CADILLAC       CLEAR     56  53  90 CALM      30.04R
CHARLEVOIX     MOCLDY    65  57  76 E10       30.07S
FRANKFORT      PTCLDY    64  62  91 CALM      30.04S
GAYLORD        PTCLDY    60  55  83 CALM      30.06R
GRAYLING       PTCLDY    51  49  94 CALM      30.06R FOG
HARBOR SPRINGS PTCLDY    62  57  84 NE6       30.06R
HOUGHTON LAKE  PTCLDY    55  53  93 NE5       30.04S
MANISTEE       MOCLDY    62  58  86 NE5       30.03R
OSCODA         CLOUDY    61  60  94 CALM      30.02F
PELLSTON       PTCLDY    54  53  97 CALM      30.07R
ROGERS CITY    CLOUDY    63  60  89 E5        30.07R
TRAVERSE CITY  PTCLDY    58  57  97 W3        30.03R
$$
MIZ007>008-015-281200-
EASTERN UPPER MICHIGAN

CITY           SKY/WX    TMP DP  RH WIND       PRES   REMARKS
KINROSS        CLOUDY    60  53  77 NE7       30.09R
MACKINAC ISLAN CLOUDY    64  58  81 E8        30.07R
NEWBERRY       PTCLDY    54  53  97 NE5       30.09R
S. S. MARIE    CLOUDY    61  52  72 E5        30.09R
MUNISING         N/A     52  52 100 S5        30.10R
$$
MIZ004>006-011>014-085-281200-
CENTRAL UPPER MICHIGAN

CITY           SKY/WX    TMP DP  RH WIND       PRES   REMARKS
MANISTIQUE     CLOUDY    56  53  89 N6        30.07R
ESCANABA       CLEAR     57  53  86 CALM      30.07R
MENOMINEE      CLEAR     54  52  93 N7        30.07S
SAWYER-GWINN   CLEAR     54  52  94 N5        30.11R
$$
MIZ001>003-009>011-084-281200-
WESTERN UPPER MICHIGAN

CITY           SKY/WX    TMP DP  RH WIND       PRES   REMARKS
HOUGHTON       CLEAR     56  50  80 E5        30.12R
COPPER HARBOR    N/A     55  51  86 W7        30.11R
IRONWOOD       FOG       48  48 100 CALM      30.14R VSB 1/2
$$

ABBREVIATIONS USED IN REMARKS
   TC - TEMPERATURE IN CELSIUS
  WCI - WIND CHILL INDEX
   HX - HEAT INDEX
  VSB - VISIBILITY





USA.gov is the U.S. government's official web portal to all federal, state and local government web resources and services.